Torna al catalogo

COSMOS 2198

AttivoMilitarePO
NORAD 22035·PAYLOAD·🇷🇺 Russia

Lanciato Jul 13, 1992 da Plesetsk Cosmodrome

Loading…

Prossimi Passaggi (prossime 24 ore)

TLE

AggiornatoSource: Space-Track

Epoca: Sep 14, 2026, 19:03 UTC

1 22035U 92042B   26257.79410310  .00000026  00000-0  83320-4 0  9994
2 22035  82.5999 197.4148 0007457 105.5321 254.6594 12.62675275574723

Traccia COSMOS 2198 in tempo reale con AllMySat

Download on the App Store